Valladolid Airport, Spain

3:49 AM CEST on July 26, 2017 (GMT +0200)
Villanubla

Weather History for LEVD - January, 2013

Change the Weather History Date:

Sunday, January 6, 2013

  Actual Average Record
Temperature  
Mean Temperature 38 °F -  
Max Temperature 50 °F - - ()
Min Temperature 26 °F - - ()
Degree Days  
Heating Degree Days 27    
Moisture  
Dew Point 34 °F    
Average Humidity 94    
Maximum Humidity 100    
Minimum Humidity 66    
Precipitation  
Precipitation 0.00 in - - ()
Sea Level Pressure  
Sea Level Pressure 30.39 in    
Wind  
Wind Speed 2 mph ()    
Max Wind Speed 6 mph    
Max Gust Speed -    
Visibility 1.2 miles    
Events Fog    
T = Trace of Precipitation, MM = Missing Value Source: Averaged Metar Reports

Daily Weather History Graph

Daily Weather History Graph

Search for Another Location

Airport or City:

Trip Planner

Search our weather history database for the weather conditions in past years. The results will help you decide how hot, cold, wet, or windy it might be!

Date:

Astronomy

Jan. 06, 2013 Rise Set
Actual Time 8:46 AM CET 6:04 PM CET
Civil Twilight 8:15 AM CET 6:35 PM CET
Nautical Twilight 7:40 AM CET 7:10 PM CET
Astronomical Twilight 7:07 AM CET 7:43 PM CET
Moon 2:42 AM CET (1/6) 1:24 PM CET (1/6)
Length of Visible Light 10h 20m
Length of Day
9h 17m
Waning Crescent, 36% of the Moon is Illuminated
Jan 6
Waning Crescent
Jan 11
New
Jan 19
First Quarter
Jan 27
Full
Feb 3
Last Quarter

Hourly Weather History & Observations

Time (CET) Temp. Windchill Dew Point Humidity Pressure Visibility Wind Dir Wind Speed Gust Speed Precip Events Conditions
6:00 AM 30.2 °F - 30.2 °F 100% 30.42 in - North 1.2 mph - N/A   Clear
6:30 AM 30.2 °F - 30.2 °F 100% 30.42 in - North 1.2 mph - N/A   Clear
7:00 AM 28.4 °F - 28.4 °F 100% 30.42 in - NNE 2.3 mph - N/A   Clear
7:30 AM 28.4 °F 24.6 °F 28.4 °F 100% 30.42 in - NE 3.5 mph - N/A   Clear
8:00 AM 28.4 °F - 28.4 °F 100% 30.42 in - ENE 1.2 mph - N/A   Clear
8:30 AM 30.2 °F - 30.2 °F 100% 30.42 in - East 2.3 mph - N/A   Clear
9:00 AM 26.6 °F 22.6 °F 26.6 °F 100% 30.42 in - SE 3.5 mph - N/A   Clear
9:30 AM 28.4 °F - 28.4 °F 100% 30.45 in - SSE 2.3 mph - N/A   Clear
10:00 AM 30.2 °F - 30.2 °F 100% 30.42 in - SE 2.3 mph - N/A   Clear
11:00 AM 32.0 °F 28.7 °F 32.0 °F 100% 30.42 in - SE 3.5 mph - N/A   Clear
11:30 AM 32.0 °F 28.7 °F 32.0 °F 100% 30.42 in - SE 3.5 mph - N/A   Clear
12:00 PM 35.6 °F - 35.6 °F 100% 30.42 in - Variable 2.3 mph - N/A   Clear
12:30 PM 41.0 °F - 37.4 °F 87% 30.42 in - Calm Calm - N/A   Clear
1:00 PM 42.8 °F - 37.4 °F 81% 30.42 in - Calm Calm - N/A   Clear
1:30 PM 46.4 °F - 39.2 °F 76% 30.39 in - Variable 1.2 mph - N/A   Clear
2:00 PM 50.0 °F - 39.2 °F 66% 30.39 in - Calm Calm - N/A   Clear
2:30 PM 46.4 °F - 42.8 °F 87% 30.36 in - Variable 2.3 mph - N/A   Clear
3:00 PM 46.4 °F - 42.8 °F 87% 30.36 in - Variable 2.3 mph - N/A   Clear
3:30 PM 46.4 °F 45.2 °F 41.0 °F 81% 30.36 in - SSE 3.5 mph - N/A   Clear
4:00 PM 46.4 °F - 42.8 °F 87% 30.36 in - Variable 2.3 mph - N/A   Clear
4:30 PM 48.2 °F - 42.8 °F 82% 30.36 in - Variable 1.2 mph - N/A   Clear
5:00 PM 48.2 °F - 42.8 °F 82% 30.36 in - Variable 1.2 mph - N/A   Clear
5:30 PM 44.6 °F - 41.0 °F 87% 30.36 in - SSE 2.3 mph - N/A   Clear
5:45 PM 39.2 °F - 37.4 °F 93% 30.36 in 0.1 mi South 2.3 mph - N/A Fog Fog
6:00 PM 37.4 °F 34.9 °F 35.6 °F 93% 30.36 in 0.1 mi South 3.5 mph - N/A Fog Fog
6:30 PM 33.8 °F 29.6 °F 33.8 °F 100% 30.36 in 0.1 mi SSW 4.6 mph - N/A Fog Fog
7:00 PM 32.0 °F 26.4 °F 32.0 °F 100% 30.36 in 0.1 mi SSW 5.8 mph - N/A Fog Fog
7:30 PM 32.0 °F - 32.0 °F 100% 30.36 in 0.1 mi South 2.3 mph - N/A Fog Light Freezing Fog
8:00 PM 32.0 °F - 32.0 °F 100% 30.36 in 0.1 mi SSE 1.2 mph - N/A Fog Light Freezing Fog
8:30 PM 30.2 °F - 30.2 °F 100% 30.36 in 0.1 mi SW 2.3 mph - N/A Fog Light Freezing Fog
9:00 PM 30.2 °F - 28.4 °F 93% 30.36 in 0.6 mi Calm Calm - N/A Fog Light Freezing Fog
9:30 PM 30.2 °F - 30.2 °F 100% 30.36 in 2.5 mi Calm Calm - N/A   Mist
10:00 PM 30.2 °F - 30.2 °F 100% 30.36 in 3.7 mi Calm Calm - N/A   Unknown
10:30 PM 30.2 °F - 30.2 °F 100% 30.36 in 5.6 mi Calm Calm - N/A   Unknown